SCP
0 0 0 0 0 0 0 0 0 -0 -0 -0 -0 0 0 0 0 0 0 0 0 0
0 0 0 0 0 0 0 0 0 0 0 0 -0 0 0 0 0 0 0 0 0 0
0 0 0 0 0 0 0 0 0 0 0 0 0 0 0 0 0 0 0 0 0 0
0 0 0 0 0 0 0 0 -0 -0 -0 0 0 0 0 0 0 0 0 0 0 0
0 0 0 0 0 0 0 0 -0 -0 -0 -0 -0 0 0 0 0 0 0 0 0 0
0 0 0 0 0 0 0 0 0 0 0 0 -0 -0 -0 -0 0 0 0 0 0 0
0 0 0 0 0 0 0 0 0 0 0 0 0 0 0 0 0 0 0 0 0 0
0 0 0 0 0 0 0 0 0 0 0 0 0 0 0 0 0 0 0 0 0 0
0 0 0 0 0 0 0 0 0 0 0 0 0 0 0 0 0 0 0 0 0 0
0 0 0 0 0 0 0 0 0 0 0 0 0 0 0 0 0 0 0 0 0 0
0 0 0 0 0 0 0 0 0 0 0 0 0 0 0 0 0 0 0 0 0 0
0 0 0 0 0 0 0 0 0 0 0 0 0 0 0 0 0 0 0 0 0 -0
0 0 0 0 0 0 0 0 0 0 0 0 0 0 0 0 0 0 0 0 0 0
0 0 0 0 0 0 0 0 0 0 0 0 0 0 0 0 0 0 0 0 0 0
Wind_Speed_500mb
29 30 31 33 36 37 43 52 60 64 66 68 68 65 62 59 62 67 76 72 78 82
44 36 39 42 39 43 48 48 50 59 63 62 65 67 66 61 58 66 68 78 78 95
32 33 37 42 43 49 50 54 59 57 54 52 52 58 60 59 60 62 67 68 72 76
32 36 41 48 53 57 58 61 64 65 57 57 56 54 56 57 56 58 61 68 75 80
34 40 48 52 59 64 60 61 64 67 60 60 66 68 64 62 56 59 62 66 81 93
39 44 50 55 59 66 68 68 67 68 69 64 64 69 71 67 63 58 62 59 69 83
51 57 64 60 59 62 65 65 68 69 72 70 62 63 64 59 59 56 42 49 65 62
57 61 64 67 66 65 62 62 61 63 66 65 62 60 64 59 58 54 55 47 58 57
67 67 70 73 75 70 68 65 62 64 69 71 64 62 62 60 58 56 51 45 32 29
66 72 78 80 74 74 73 71 69 67 69 67 68 67 59 55 50 46 52 49 53 55
81 84 85 86 86 88 89 85 81 82 83 79 69 64 55 52 48 42 48 35 17 29
69 70 74 78 82 83 85 85 76 76 76 80 80 59 48 44 47 48 46 54 62 64
68 71 72 72 72 75 76 76 76 76 76 81 75 60 54 38 40 37 42 48 46 47
102 103 101 97 93 87 82 82 81 80 79 75 68 61 66 47 39 36 30 31 55 39
Wind_Direction_500mb
289 284 286 290 296 300 300 297 297 300 301 304 304 301 294 286 284 282 276 274 274 264
269 270 277 284 287 290 293 297 303 306 299 302 310 310 308 301 295 280 274 273 268 263
252 263 272 277 281 286 292 299 309 312 312 313 314 316 313 305 298 286 276 269 264 262
266 266 269 273 280 286 293 300 304 308 311 317 319 323 322 305 299 291 282 271 265 261
278 283 285 285 289 291 294 301 304 304 311 312 312 313 321 321 306 296 284 277 262 258
278 281 283 286 288 289 297 305 302 302 301 306 317 321 312 317 311 293 283 277 273 268
278 277 278 279 280 283 289 299 301 303 299 300 308 314 314 314 311 304 303 287 273 266
271 270 274 274 276 279 282 289 298 298 297 300 299 304 309 302 302 302 295 285 275 264
276 267 269 273 275 277 283 286 287 285 288 289 290 296 300 312 299 294 291 272 264 241
277 275 279 282 277 275 278 277 279 288 292 290 286 285 290 295 289 284 277 267 249 253
282 281 283 280 279 282 284 281 278 286 293 285 287 284 275 281 281 276 266 233 266 262
282 283 281 278 276 275 274 273 273 279 292 284 290 279 270 275 278 266 272 242 256 255
280 278 276 273 274 275 272 271 273 272 284 279 280 270 265 262 269 273 263 253 236 235
290 288 285 281 276 275 276 274 272 275 277 272 274 270 259 254 259 264 276 271 255 266
Wind_Speed_850mb
29 30 31 33 36 37 43 52 60 64 66 68 68 65 62 59 62 67 76 72 78 82
44 36 39 42 39 43 48 48 50 59 63 62 65 67 66 61 58 66 68 78 78 95
32 33 37 42 43 49 50 54 59 57 54 52 52 58 60 59 60 62 67 68 72 76
32 36 41 48 53 57 58 61 64 65 57 57 56 54 56 57 56 58 61 68 75 80
34 40 48 52 59 64 60 61 64 67 60 60 66 68 64 62 56 59 62 66 81 93
39 44 50 55 59 66 68 68 67 68 69 64 64 69 71 67 63 58 62 59 69 83
51 57 64 60 59 62 65 65 68 69 72 70 62 63 64 59 59 56 42 49 65 62
57 61 64 67 66 65 62 62 61 63 66 65 62 60 64 59 58 54 55 47 58 57
67 67 70 73 75 70 68 65 62 64 69 71 64 62 62 60 58 56 51 45 32 29
66 72 78 80 74 74 73 71 69 67 69 67 68 67 59 55 50 46 52 49 53 55
81 84 85 86 86 88 89 85 81 82 83 79 69 64 55 52 48 42 48 35 17 29
69 70 74 78 82 83 85 85 76 76 76 80 80 59 48 44 47 48 46 54 62 64
68 71 72 72 72 75 76 76 76 76 76 81 75 60 54 38 40 37 42 48 46 47
102 103 101 97 93 87 82 82 81 80 79 75 68 61 66 47 39 36 30 31 55 39
Wind_Direction_850mb
289 284 286 290 296 300 300 297 297 300 301 304 304 301 294 286 284 282 276 274 274 264
269 270 277 284 287 290 293 297 303 306 299 302 310 310 308 301 295 280 274 273 268 263
252 263 272 277 281 286 292 299 309 312 312 313 314 316 313 305 298 286 276 269 264 262
266 266 269 273 280 286 293 300 304 308 311 317 319 323 322 305 299 291 282 271 265 261
278 283 285 285 289 291 294 301 304 304 311 312 312 313 321 321 306 296 284 277 262 258
278 281 283 286 288 289 297 305 302 302 301 306 317 321 312 317 311 293 283 277 273 268
278 277 278 279 280 283 289 299 301 303 299 300 308 314 314 314 311 304 303 287 273 266
271 270 274 274 276 279 282 289 298 298 297 300 299 304 309 302 302 302 295 285 275 264
276 267 269 273 275 277 283 286 287 285 288 289 290 296 300 312 299 294 291 272 264 241
277 275 279 282 277 275 278 277 279 288 292 290 286 285 290 295 289 284 277 267 249 253
282 281 283 280 279 282 284 281 278 286 293 285 287 284 275 281 281 276 266 233 266 262
282 283 281 278 276 275 274 273 273 279 292 284 290 279 270 275 278 266 272 242 256 255
280 278 276 273 274 275 272 271 273 272 284 279 280 270 265 262 269 273 263 253 236 235
290 288 285 281 276 275 276 274 272 275 277 272 274 270 259 254 259 264 276 271 255 266